When you browse on this site, cookies collect data to enhance your experience and personalize the content and advertising you see.
Visit our Privacy Policy to learn more. By continuing to use the site, you agree to this use of cookies and data.
  • In United Kingdom
  • List of Countries
  • For 7 days
  • Water Temperature
  • Satellite Maps
  • Weather Map
  • Weather Widgets
  • user-avatar
    Login

    Hourly Weather Modesto

    Today, 19 April, Friday

    Time Temperature Precipitation Wind Pressure Humidity
    00:00 +19°C° 0 mm 1 mps 761 mmHg 76%
    01:00 +18°C° 0 mm 1 mps 761 mmHg 77%
    02:00 +18°C° 0 mm 1 mps 760 mmHg 77%
    03:00 +18°C° 0 mm 1 mps 760 mmHg 78%
    04:00 +16°C° 0 mm 1 mps 760 mmHg 78%
    05:00 +18°C° 0 mm 1 mps 759 mmHg 76%
    06:00 +19°C° 0 mm 1 mps 759 mmHg 73%
    07:00 +20°C° 0 mm 1 mps 759 mmHg 71%
    08:00 +22°C° 0 mm 1 mps 759 mmHg 66%
    09:00 +23°C° 0 mm 2 mps 758 mmHg 61%
    10:00 +25°C° 0 mm 2 mps 758 mmHg 56%
    11:00 +27°C° 0 mm 2 mps 758 mmHg 53%
    12:00 +28°C° 0 mm 2 mps 757 mmHg 49%
    13:00 +29°C° 0 mm 2 mps 757 mmHg 46%
    14:00 +29°C° 0 mm 2 mps 757 mmHg 47%
    15:00 +29°C° 0 mm 2 mps 756 mmHg 48%
    16:00 +29°C° 0 mm 2 mps 756 mmHg 49%
    17:00 +27°C° 0 mm 2 mps 756 mmHg 51%
    18:00 +26°C° 0 mm 3 mps 756 mmHg 54%
    19:00 +24°C° 0 mm 3 mps 756 mmHg 57%
    20:00 +21°C° 0.1 mm 2 mps 756 mmHg 58%
    21:00 +20°C° 0.1 mm 2 mps 756 mmHg 59%
    22:00 +19°C° 0.1 mm 2 mps 756 mmHg 60%
    23:00 +19°C° 0 mm 1 mps 756 mmHg 63%

    Tomorrow, 20 April, Saturday

    Time Temperature Precipitation Wind Pressure Humidity
    00:00 +18°C° 0 mm 1 mps 756 mmHg 66%
    01:00 +16°C° 0 mm 1 mps 756 mmHg 69%
    02:00 +16°C° 0 mm 1 mps 756 mmHg 71%
    03:00 +15°C° 0 mm 1 mps 755 mmHg 72%
    04:00 +15°C° 0 mm 1 mps 755 mmHg 74%
    05:00 +15°C° 0 mm 1 mps 756 mmHg 73%
    06:00 +16°C° 0 mm 1 mps 756 mmHg 72%
    07:00 +18°C° 0 mm 1 mps 756 mmHg 71%
    08:00 +19°C° 0 mm 1 mps 756 mmHg 66%
    09:00 +20°C° 0 mm 2 mps 756 mmHg 61%
    10:00 +21°C° 0 mm 2 mps 757 mmHg 56%
    11:00 +22°C° 0 mm 3 mps 757 mmHg 52%
    12:00 +24°C° 0 mm 3 mps 757 mmHg 48%
    13:00 +25°C° 0 mm 4 mps 757 mmHg 44%
    14:00 +22°C° 0 mm 5 mps 756 mmHg 45%
    15:00 +21°C° 0 mm 6 mps 756 mmHg 46%
    16:00 +20°C° 0 mm 6 mps 756 mmHg 47%
    17:00 +17°C° 0 mm 5 mps 756 mmHg 53%
    18:00 +16°C° 0 mm 3 mps 757 mmHg 59%
    19:00 +13°C° 0 mm 2 mps 757 mmHg 65%
    20:00 +13°C° 0 mm 2 mps 758 mmHg 68%
    21:00 +12°C° 0 mm 2 mps 758 mmHg 72%
    22:00 +11°C° 0 mm 1 mps 759 mmHg 75%
    23:00 +11°C° 0 mm 1 mps 759 mmHg 78%

    Day after tomorrow, 21 April, Sunday

    Time Temperature Precipitation Wind Pressure Humidity
    00:00 +11°C° 0 mm 1 mps 759 mmHg 80%
    01:00 +10°C° 0 mm 1 mps 759 mmHg 82%
    02:00 +10°C° 0 mm 1 mps 759 mmHg 83%
    03:00 +10°C° 0 mm 1 mps 760 mmHg 85%
    04:00 +10°C° 0 mm 1 mps 760 mmHg 86%
    05:00 +11°C° 0 mm 1 mps 760 mmHg 83%
    06:00 +12°C° 0 mm 1 mps 761 mmHg 79%
    07:00 +13°C° 0 mm 1 mps 761 mmHg 75%
    08:00 +15°C° 0 mm 2 mps 761 mmHg 71%
    09:00 +17°C° 0 mm 3 mps 761 mmHg 66%
    10:00 +19°C° 0 mm 4 mps 761 mmHg 62%
    11:00 +20°C° 0 mm 4 mps 760 mmHg 56%
    12:00 +22°C° 0 mm 5 mps 760 mmHg 50%
    13:00 +23°C° 0 mm 5 mps 760 mmHg 44%
    14:00 +23°C° 0 mm 5 mps 760 mmHg 42%
    15:00 +25°C° 0 mm 5 mps 759 mmHg 40%
    16:00 +25°C° 0 mm 5 mps 759 mmHg 38%
    17:00 +22°C° 0 mm 4 mps 759 mmHg 44%
    18:00 +20°C° 0 mm 3 mps 760 mmHg 49%
    19:00 +18°C° 0 mm 2 mps 760 mmHg 55%
    20:00 +17°C° 0 mm 2 mps 760 mmHg 58%
    21:00 +16°C° 0 mm 2 mps 761 mmHg 60%
    22:00 +15°C° 0 mm 2 mps 761 mmHg 63%
    23:00 +15°C° 0 mm 2 mps 761 mmHg 65%

    22 April, Monday

    Time Temperature Precipitation Wind Pressure Humidity
    00:00 +14°C° 0 mm 1 mps 761 mmHg 68%
    01:00 +13°C° 0 mm 1 mps 761 mmHg 70%
    02:00 +13°C° 0 mm 1 mps 761 mmHg 72%
    03:00 +13°C° 0 mm 1 mps 761 mmHg 73%
    04:00 +12°C° 0 mm 1 mps 761 mmHg 75%
    05:00 +13°C° 0 mm 1 mps 761 mmHg 73%
    06:00 +14°C° 0 mm 1 mps 761 mmHg 72%
    07:00 +15°C° 0 mm 1 mps 762 mmHg 70%
    08:00 +17°C° 0 mm 2 mps 761 mmHg 62%
    09:00 +19°C° 0 mm 2 mps 761 mmHg 55%
    10:00 +21°C° 0 mm 2 mps 761 mmHg 47%
    11:00 +22°C° 0 mm 3 mps 760 mmHg 44%
    12:00 +25°C° 0 mm 3 mps 760 mmHg 41%
    13:00 +26°C° 0 mm 4 mps 760 mmHg 38%
    14:00 +27°C° 0 mm 4 mps 759 mmHg 37%
    15:00 +28°C° 0 mm 4 mps 759 mmHg 37%
    16:00 +28°C° 0 mm 4 mps 759 mmHg 36%
    17:00 +26°C° 0 mm 3 mps 759 mmHg 41%
    18:00 +24°C° 0 mm 2 mps 759 mmHg 46%
    19:00 +21°C° 0 mm 2 mps 759 mmHg 50%
    20:00 +21°C° 0 mm 1 mps 760 mmHg 52%
    21:00 +20°C° 0 mm 1 mps 760 mmHg 54%
    22:00 +19°C° 0 mm 1 mps 760 mmHg 55%
    23:00 +18°C° 0 mm 1 mps 760 mmHg 58%

    23 April, Tuesday

    Time Temperature Precipitation Wind Pressure Humidity
    00:00 +16°C° 0 mm 1 mps 760 mmHg 60%
    01:00 +16°C° 0 mm 1 mps 760 mmHg 62%
    02:00 +15°C° 0 mm 1 mps 760 mmHg 64%
    03:00 +15°C° 0 mm 1 mps 760 mmHg 66%
    04:00 +14°C° 0 mm 1 mps 760 mmHg 67%
    05:00 +14°C° 0 mm 0 mps 760 mmHg 65%
    06:00 +15°C° 0 mm 0 mps 760 mmHg 63%
    07:00 +16°C° 0 mm 0 mps 760 mmHg 60%
    08:00 +19°C° 0 mm 0 mps 760 mmHg 56%
    09:00 +21°C° 0 mm 0 mps 760 mmHg 51%
    10:00 +23°C° 0 mm 0 mps 760 mmHg 47%
    11:00 +27°C° 0 mm 1 mps 760 mmHg 43%
    12:00 +28°C° 0 mm 1 mps 759 mmHg 40%
    13:00 +29°C° 0 mm 1 mps 759 mmHg 36%
    14:00 +29°C° 0 mm 1 mps 759 mmHg 36%
    15:00 +30°C° 0 mm 1 mps 758 mmHg 36%
    16:00 +30°C° 0 mm 2 mps 758 mmHg 35%
    17:00 +27°C° 0 mm 1 mps 758 mmHg 40%
    18:00 +25°C° 0 mm 1 mps 759 mmHg 45%
    19:00 +20°C° 0 mm 0 mps 759 mmHg 49%
    20:00 +20°C° 0 mm 0 mps 759 mmHg 51%
    21:00 +21°C° 0 mm 1 mps 760 mmHg 52%
    22:00 +20°C° 0 mm 1 mps 760 mmHg 54%
    23:00 +20°C° 0 mm 1 mps 760 mmHg 57%

    24 April, Wednesday

    Time Temperature Precipitation Wind Pressure Humidity
    00:00 +20°C° 0 mm 1 mps 760 mmHg 59%
    01:00 +19°C° 0 mm 1 mps 759 mmHg 62%
    02:00 +19°C° 0 mm 1 mps 759 mmHg 63%
    03:00 +19°C° 0 mm 1 mps 759 mmHg 65%
    04:00 +18°C° 0 mm 1 mps 759 mmHg 66%
    05:00 +19°C° 0 mm 1 mps 759 mmHg 64%
    06:00 +20°C° 0 mm 1 mps 760 mmHg 63%
    07:00 +21°C° 0 mm 1 mps 760 mmHg 61%
    08:00 +23°C° 0 mm 1 mps 760 mmHg 56%
    09:00 +26°C° 0 mm 1 mps 759 mmHg 50%
    10:00 +28°C° 0 mm 1 mps 759 mmHg 45%
    11:00 +29°C° 0 mm 1 mps 759 mmHg 41%
    12:00 +31°C° 0 mm 1 mps 759 mmHg 38%
    13:00 +32°C° 0 mm 1 mps 758 mmHg 35%
    14:00 +32°C° 0 mm 1 mps 758 mmHg 36%
    15:00 +32°C° 0 mm 1 mps 757 mmHg 36%
    16:00 +32°C° 0 mm 2 mps 757 mmHg 37%
    17:00 +30°C° 0 mm 2 mps 757 mmHg 42%
    18:00 +28°C° 0 mm 2 mps 757 mmHg 47%
    19:00 +26°C° 0 mm 1 mps 757 mmHg 53%
    20:00 +25°C° 0 mm 1 mps 758 mmHg 55%
    21:00 +24°C° 0 mm 1 mps 758 mmHg 58%
    22:00 +22°C° 0 mm 1 mps 758 mmHg 60%
    23:00 +22°C° 0 mm 1 mps 758 mmHg 62%
    Show more